This is the latest recevied weather packets stored in our database for station/object HS3PQJ-1. If no packets are shown the sender has not sent any weather packets the latest 1 day(s).
| Time | Temp. | Humidity | Pressure | Rain* | Wind** | Luminosity | Snow |
|---|---|---|---|---|---|---|---|
| 1778117980 | 32.22° C | 93% | - | - | - | 0 W/m² | - |
| 1778117061 | 31.67° C | 93% | - | - | - | 0 W/m² | - |
| 1778116146 | 31.67° C | 94% | - | - | - | 0 W/m² | - |
| 1778115230 | 31.11° C | 94% | - | - | - | 0 W/m² | - |
| 1778113394 | 30.56° C | 96% | - | - | - | 0 W/m² | - |
| 1778112480 | 30.56° C | 97% | - | - | - | 0 W/m² | - |
| 1778111566 | 30.56° C | 98% | - | - | - | 0 W/m² | - |
| 1778106069 | 30.56° C | 94% | - | - | - | 0 W/m² | - |
| 1778105155 | 30.56° C | 93% | - | - | - | 0 W/m² | - |
| 1778101483 | 31.11° C | 92% | - | - | - | 0 W/m² | - |
| 1778098728 | 31.11° C | 92% | - | - | - | 0 W/m² | - |
| 1778097811 | 31.11° C | 92% | - | - | - | 0 W/m² | - |
| 1778095978 | 31.67° C | 91% | - | - | - | 0 W/m² | - |
| 1778091387 | 31.67° C | 90% | - | - | - | 0 W/m² | - |
| 1778086804 | 32.22° C | 90% | - | - | - | 0 W/m² | - |
| 1778085887 | 32.22° C | 90% | - | - | - | 0 W/m² | - |
| 1778080398 | 32.78° C | 92% | - | - | - | 0 W/m² | - |
| 1778079484 | 33.33° C | 93% | - | - | - | 0 W/m² | - |
| 1778078570 | 33.33° C | 92% | - | - | - | 0 W/m² | - |
| 1778075823 | 33.33° C | 90% | - | - | - | 0 W/m² | - |
| 1778074909 | 33.33° C | 90% | - | - | - | 0 W/m² | - |
| 1778065856 | 34.44° C | 90% | - | - | - | 0 W/m² | - |
| 1778064942 | 35° C | 90% | - | - | - | 0 W/m² | - |
| 1778064025 | 35° C | 90% | - | - | - | 0 W/m² | - |
| 1778063111 | 35° C | 89% | - | - | - | 0 W/m² | - |
* Rain since midnight (hover to see other rain measurements)
** Current wind speed in m/s (hover to see current wind gust speed)